Time,TemperatureF,DewpointF,PressureIn,WindDirection,WindDirectionDegrees,WindSpeedMPH,WindSpeedGustMPH,Humidity,HourlyPrecipIn,Conditions,Clouds,dailyrainin,SoftwareType,DateUTC
2013-07-17 00:00:00,80.8,69.2,30.16,SE,140,1.2,1.2,68,0.00,CLR,CLR,0.00,WeatherDisplay:10.37,2013-07-17 05:00:00,
2013-07-17 00:05:00,80.7,69.2,30.17,SW,232,2.0,0.0,68,0.00,CLR,CLR,0.00,WeatherDisplay:10.37,2013-07-17 05:05:00,
2013-07-17 00:10:00,80.6,69.1,30.16,South,177,1.2,1.2,68,0.00,CLR,CLR,0.00,WeatherDisplay:10.37,2013-07-17 05:10:00,
2013-07-17 00:16:00,80.5,69.0,30.16,South,177,1.0,0.0,68,0.00,CLR,CLR,0.00,WeatherDisplay:10.37,2013-07-17 05:16:00,
2013-07-17 00:21:00,80.4,68.9,30.16,SW,215,0.0,0.0,68,0.00,CLR,CLR,0.00,WeatherDisplay:10.37,2013-07-17 05:21:00,
2013-07-17 00:26:00,80.4,68.9,30.16,SW,214,1.2,1.2,68,0.00,CLR,CLR,0.00,WeatherDisplay:10.37,2013-07-17 05:26:00,
2013-07-17 00:31:00,80.4,68.9,30.17,SW,214,1.0,1.0,68,0.00,CLR,CLR,0.00,WeatherDisplay:10.37,2013-07-17 05:31:00,
2013-07-17 00:36:00,80.3,69.2,30.17,ESE,123,2.3,2.3,69,0.00,CLR,CLR,0.00,WeatherDisplay:10.37,2013-07-17 05:36:00,
2013-07-17 00:41:00,80.3,69.2,30.17,ESE,123,0.0,0.0,69,0.00,CLR,CLR,0.00,WeatherDisplay:10.37,2013-07-17 05:41:00,
2013-07-17 00:46:00,80.2,69.1,30.17,ESE,123,1.2,0.0,69,0.00,CLR,CLR,0.00,WeatherDisplay:10.37,2013-07-17 05:46:00,
2013-07-17 00:51:00,80.1,69.0,30.17,SE,131,1.0,0.0,69,0.00,CLR,CLR,0.00,WeatherDisplay:10.37,2013-07-17 05:51:00,
2013-07-17 00:56:00,80.0,68.9,30.17,SE,134,0.0,0.0,69,0.00,CLR,CLR,0.00,WeatherDisplay:10.37,2013-07-17 05:56:00,
2013-07-17 01:01:00,80.0,68.9,30.17,SSE,162,0.0,0.0,69,0.00,CLR,CLR,0.00,WeatherDisplay:10.37,2013-07-17 06:01:00,
2013-07-17 01:06:00,79.9,69.2,30.17,SSE,163,0.0,0.0,70,0.00,CLR,CLR,0.00,WeatherDisplay:10.37,2013-07-17 06:06:00,
2013-07-17 01:11:00,79.8,69.1,30.17,ESE,120,3.5,0.0,70,0.00,CLR,CLR,0.00,WeatherDisplay:10.37,2013-07-17 06:11:00,
2013-07-17 01:16:00,79.8,69.1,30.17,South,188,0.0,0.0,70,0.00,CLR,CLR,0.00,WeatherDisplay:10.37,2013-07-17 06:16:00,
2013-07-17 01:21:00,79.8,69.1,30.17,South,188,1.2,1.2,70,0.00,CLR,CLR,0.00,WeatherDisplay:10.37,2013-07-17 06:21:00,
2013-07-17 01:26:00,79.7,69.0,30.17,South,188,0.0,0.0,70,0.00,CLR,CLR,0.00,WeatherDisplay:10.37,2013-07-17 06:26:00,
2013-07-17 01:31:00,79.6,69.0,30.17,West,269,2.0,2.0,70,0.00,CLR,CLR,0.00,WeatherDisplay:10.37,2013-07-17 06:31:00,
2013-07-17 01:36:00,79.6,69.0,30.17,West,269,0.0,0.0,70,0.00,CLR,CLR,0.00,WeatherDisplay:10.37,2013-07-17 06:36:00,
2013-07-17 01:42:00,79.5,69.3,30.17,West,269,0.0,0.0,71,0.00,CLR,CLR,0.00,WeatherDisplay:10.37,2013-07-17 06:42:00,
2013-07-17 01:47:00,79.4,69.2,30.17,WSW,256,0.0,0.0,71,0.00,CLR,CLR,0.00,WeatherDisplay:10.37,2013-07-17 06:47:00,
2013-07-17 01:52:00,79.3,69.1,30.17,WSW,256,0.0,0.0,71,0.00,CLR,CLR,0.00,WeatherDisplay:10.37,2013-07-17 06:52:00,
2013-07-17 01:57:00,79.2,69.0,30.17,WSW,256,0.0,0.0,71,0.00,CLR,CLR,0.00,WeatherDisplay:10.37,2013-07-17 06:57:00,
2013-07-17 02:02:00,79.1,69.3,30.17,WSW,256,0.0,0.0,72,0.00,CLR,CLR,0.00,WeatherDisplay:10.37,2013-07-17 07:02:00,
2013-07-17 02:07:00,78.9,69.1,30.16,WSW,256,0.0,0.0,72,0.00,CLR,CLR,0.00,WeatherDisplay:10.37,2013-07-17 07:07:00,
2013-07-17 02:12:00,78.8,69.0,30.16,WSW,253,1.2,1.2,72,0.00,CLR,CLR,0.00,WeatherDisplay:10.37,2013-07-17 07:12:00,
2013-07-17 02:18:00,78.8,69.4,30.16,SE,128,1.2,1.2,73,0.00,CLR,CLR,0.00,WeatherDisplay:10.37,2013-07-17 07:18:00,
2013-07-17 02:23:00,78.9,69.5,30.17,SE,128,1.2,0.0,73,0.00,CLR,CLR,0.00,WeatherDisplay:10.37,2013-07-17 07:23:00,
2013-07-17 02:28:00,78.8,69.4,30.17,SE,128,0.0,0.0,73,0.00,CLR,CLR,0.00,WeatherDisplay:10.37,2013-07-17 07:28:00,
2013-07-17 02:33:00,78.7,69.3,30.16,SE,128,0.0,0.0,73,0.00,CLR,CLR,0.00,WeatherDisplay:10.37,2013-07-17 07:33:00,
2013-07-17 02:38:00,78.6,69.2,30.17,SE,128,1.2,0.0,73,0.00,CLR,CLR,0.00,WeatherDisplay:10.37,2013-07-17 07:38:00,
2013-07-17 02:43:00,78.4,69.4,30.17,SE,128,0.0,0.0,74,0.00,CLR,CLR,0.00,WeatherDisplay:10.37,2013-07-17 07:43:00,
2013-07-17 02:48:00,78.3,69.3,30.17,SSE,155,0.0,0.0,74,0.00,CLR,CLR,0.00,WeatherDisplay:10.37,2013-07-17 07:48:00,
2013-07-17 02:53:00,78.2,69.2,30.17,SSE,155,0.0,0.0,74,0.00,CLR,CLR,0.00,WeatherDisplay:10.37,2013-07-17 07:53:00,
2013-07-17 02:58:00,78.0,69.4,30.17,SSE,155,0.0,0.0,75,0.00,CLR,CLR,0.00,WeatherDisplay:10.37,2013-07-17 07:58:00,
2013-07-17 03:03:00,77.8,69.2,30.17,ESE,113,1.2,1.2,75,0.00,CLR,CLR,0.00,WeatherDisplay:10.37,2013-07-17 08:03:00,
2013-07-17 03:08:00,77.7,69.5,30.17,ESE,115,1.2,1.2,76,0.00,CLR,CLR,0.00,WeatherDisplay:10.37,2013-07-17 08:08:00,
2013-07-17 03:14:00,77.6,69.4,30.17,ESE,123,2.3,0.0,76,0.00,CLR,CLR,0.00,WeatherDisplay:10.37,2013-07-17 08:14:00,
2013-07-17 03:19:00,77.6,69.4,30.17,South,186,0.0,0.0,76,0.00,CLR,CLR,0.00,WeatherDisplay:10.37,2013-07-17 08:19:00,
2013-07-17 03:24:00,77.5,69.3,30.17,SW,225,2.3,2.3,76,0.00,CLR,CLR,0.00,WeatherDisplay:10.37,2013-07-17 08:24:00,
2013-07-17 03:29:00,77.5,69.3,30.17,West,259,1.2,0.0,76,0.00,CLR,CLR,0.00,WeatherDisplay:10.37,2013-07-17 08:29:00,
2013-07-17 03:34:00,77.4,69.2,30.17,West,263,2.3,2.3,76,0.00,CLR,CLR,0.00,WeatherDisplay:10.37,2013-07-17 08:34:00,
2013-07-17 03:39:00,77.2,69.0,30.17,WSW,258,1.2,1.2,76,0.00,CLR,CLR,0.00,WeatherDisplay:10.37,2013-07-17 08:39:00,
2013-07-17 03:44:00,77.1,68.9,30.17,WSW,258,0.0,0.0,76,0.00,CLR,CLR,0.00,WeatherDisplay:10.37,2013-07-17 08:44:00,
2013-07-17 03:49:00,76.9,68.8,30.17,WSW,258,0.0,0.0,76,0.00,CLR,CLR,0.00,WeatherDisplay:10.37,2013-07-17 08:49:00,
2013-07-17 03:54:00,76.8,68.7,30.17,WSW,258,0.0,0.0,76,0.00,CLR,CLR,0.00,WeatherDisplay:10.37,2013-07-17 08:54:00,
2013-07-17 03:59:00,76.6,68.8,30.17,WSW,258,0.0,0.0,77,0.00,CLR,CLR,0.00,WeatherDisplay:10.37,2013-07-17 08:59:00,
2013-07-17 04:04:00,76.4,68.7,30.17,WSW,258,0.0,0.0,77,0.00,CLR,CLR,0.00,WeatherDisplay:10.37,2013-07-17 09:04:00,
2013-07-17 04:09:00,76.2,68.8,30.17,WSW,258,0.0,0.0,78,0.00,CLR,CLR,0.00,WeatherDisplay:10.37,2013-07-17 09:09:00,
2013-07-17 04:14:00,76.0,68.6,30.17,SSW,209,1.0,1.0,78,0.00,CLR,CLR,0.00,WeatherDisplay:10.37,2013-07-17 09:14:00,
2013-07-17 04:19:00,75.8,68.4,30.17,SSW,209,0.0,0.0,78,0.00,CLR,CLR,0.00,WeatherDisplay:10.37,2013-07-17 09:19:00,
2013-07-17 04:24:00,75.7,68.4,30.17,SE,141,0.0,0.0,78,0.00,CLR,CLR,0.00,WeatherDisplay:10.37,2013-07-17 09:24:00,
2013-07-17 04:29:00,75.6,68.6,30.17,SE,141,0.0,0.0,79,0.00,CLR,CLR,0.00,WeatherDisplay:10.37,2013-07-17 09:29:00,
2013-07-17 04:34:00,75.4,68.4,30.17,SE,141,0.0,0.0,79,0.00,CLR,CLR,0.00,WeatherDisplay:10.37,2013-07-17 09:34:00,
2013-07-17 04:39:00,75.2,68.6,30.17,SE,141,0.0,0.0,80,0.00,CLR,CLR,0.00,WeatherDisplay:10.37,2013-07-17 09:39:00,
2013-07-17 04:44:00,75.0,68.4,30.17,SE,141,0.0,0.0,80,0.00,CLR,CLR,0.00,WeatherDisplay:10.37,2013-07-17 09:44:00,
2013-07-17 04:49:00,74.9,68.3,30.17,SE,141,0.0,0.0,80,0.00,CLR,CLR,0.00,WeatherDisplay:10.37,2013-07-17 09:49:00,
2013-07-17 04:54:00,74.7,68.5,30.17,SE,141,0.0,0.0,81,0.00,CLR,CLR,0.00,WeatherDisplay:10.37,2013-07-17 09:54:00,
2013-07-17 04:59:00,74.6,68.4,30.17,SE,141,0.0,0.0,81,0.00,CLR,CLR,0.00,WeatherDisplay:10.37,2013-07-17 09:59:00,
2013-07-17 05:05:00,74.4,68.2,30.17,SE,141,0.0,0.0,81,0.00,CLR,CLR,0.00,WeatherDisplay:10.37,2013-07-17 10:05:00,
2013-07-17 05:10:00,74.2,68.3,30.17,SE,141,0.0,0.0,82,0.00,CLR,CLR,0.00,WeatherDisplay:10.37,2013-07-17 10:10:00,
2013-07-17 05:15:00,74.0,68.2,30.17,SE,141,0.0,0.0,82,0.00,CLR,CLR,0.00,WeatherDisplay:10.37,2013-07-17 10:15:00,
2013-07-17 05:20:00,73.9,68.1,30.17,SE,141,0.0,0.0,82,0.00,CLR,CLR,0.00,WeatherDisplay:10.37,2013-07-17 10:20:00,
2013-07-17 05:25:00,73.8,68.0,30.17,SE,141,0.0,1.0,82,0.00,CLR,CLR,0.00,WeatherDisplay:10.37,2013-07-17 10:25:00,
2013-07-17 05:30:00,73.9,68.1,30.17,SSE,157,0.0,2.0,82,0.00,CLR,CLR,0.00,WeatherDisplay:10.37,2013-07-17 10:30:00,
2013-07-17 05:35:00,74.1,67.9,30.17,SW,231,1.2,1.2,81,0.00,CLR,CLR,0.00,WeatherDisplay:10.37,2013-07-17 10:35:00,
2013-07-17 05:40:00,74.3,67.7,30.17,SW,232,2.0,2.0,80,0.00,CLR,CLR,0.00,WeatherDisplay:10.37,2013-07-17 10:40:00,
2013-07-17 05:45:00,74.5,67.9,30.17,WSW,248,3.5,3.5,80,0.00,CLR,CLR,0.00,WeatherDisplay:10.37,2013-07-17 10:45:00,
2013-07-17 05:50:00,74.5,67.9,30.17,WSW,250,3.5,3.5,80,0.00,CLR,CLR,0.00,WeatherDisplay:10.37,2013-07-17 10:50:00,
2013-07-17 05:55:00,74.4,67.8,30.17,WSW,251,1.2,1.2,80,0.00,CLR,CLR,0.00,WeatherDisplay:10.37,2013-07-17 10:55:00,
2013-07-17 06:00:00,74.2,67.6,30.18,WSW,251,1.2,1.2,80,0.00,CLR,CLR,0.00,WeatherDisplay:10.37,2013-07-17 11:00:00,
2013-07-17 06:06:00,74.0,67.8,30.18,WSW,251,2.3,2.3,81,0.00,CLR,CLR,0.00,WeatherDisplay:10.37,2013-07-17 11:06:00,
2013-07-17 06:11:00,73.8,67.6,30.18,WSW,252,2.3,2.3,81,0.00,CLR,CLR,0.00,WeatherDisplay:10.37,2013-07-17 11:11:00,
2013-07-17 06:16:00,73.6,67.8,30.18,WSW,252,2.3,2.3,82,0.00,CLR,CLR,0.00,WeatherDisplay:10.37,2013-07-17 11:16:00,
2013-07-17 06:21:00,73.5,67.7,30.18,WSW,252,2.3,2.3,82,0.00,CLR,CLR,0.00,WeatherDisplay:10.37,2013-07-17 11:21:00,
2013-07-17 06:26:00,73.4,67.6,30.18,WSW,252,2.3,2.3,82,0.00,CLR,CLR,0.00,WeatherDisplay:10.37,2013-07-17 11:26:00,
2013-07-17 06:31:00,73.3,67.5,30.19,WSW,252,2.3,2.3,82,0.00,CLR,CLR,0.00,WeatherDisplay:10.37,2013-07-17 11:31:00,
2013-07-17 06:36:00,73.3,67.8,30.19,WSW,252,3.0,3.0,83,0.00,CLR,CLR,0.00,WeatherDisplay:10.37,2013-07-17 11:36:00,
2013-07-17 06:41:00,73.2,67.7,30.19,WSW,251,5.0,5.0,83,0.00,CLR,CLR,0.00,WeatherDisplay:10.37,2013-07-17 11:41:00,
2013-07-17 06:46:00,73.2,67.7,30.19,WSW,251,4.0,4.0,83,0.00,CLR,CLR,0.00,WeatherDisplay:10.37,2013-07-17 11:46:00,
2013-07-17 06:51:00,73.1,67.6,30.19,WSW,250,3.0,3.0,83,0.00,CLR,CLR,0.00,WeatherDisplay:10.37,2013-07-17 11:51:00,
2013-07-17 06:56:00,73.0,67.5,30.19,WSW,254,3.5,3.5,83,0.00,CLR,CLR,0.00,WeatherDisplay:10.37,2013-07-17 11:56:00,
2013-07-17 07:01:00,73.0,67.9,30.19,WSW,254,2.3,2.3,84,0.00,CLR,CLR,0.00,WeatherDisplay:10.37,2013-07-17 12:01:00,
2013-07-17 07:06:00,73.0,67.9,30.19,WSW,254,2.3,2.3,84,0.00,CLR,CLR,0.00,WeatherDisplay:10.37,2013-07-17 12:06:00,
2013-07-17 07:11:00,73.0,67.9,30.20,WSW,254,2.3,2.3,84,0.00,CLR,CLR,0.00,WeatherDisplay:10.37,2013-07-17 12:11:00,
2013-07-17 07:16:00,73.1,68.0,30.20,WSW,254,1.2,1.2,84,0.00,CLR,CLR,0.00,WeatherDisplay:10.37,2013-07-17 12:16:00,
2013-07-17 07:21:00,73.2,68.1,30.20,WSW,254,1.2,1.2,84,0.00,CLR,CLR,0.00,WeatherDisplay:10.37,2013-07-17 12:21:00,
2013-07-17 07:26:00,73.4,67.9,30.20,West,259,2.0,2.0,83,0.00,CLR,CLR,0.00,WeatherDisplay:10.37,2013-07-17 12:26:00,
2013-07-17 07:31:00,73.6,67.8,30.20,West,259,2.3,2.3,82,0.00,CLR,CLR,0.00,WeatherDisplay:10.37,2013-07-17 12:31:00,
2013-07-17 07:36:00,73.8,68.0,30.20,West,259,1.2,1.2,82,0.00,CLR,CLR,0.00,WeatherDisplay:10.37,2013-07-17 12:36:00,
2013-07-17 07:41:00,73.9,67.7,30.20,WSW,244,2.3,2.3,81,0.00,CLR,CLR,0.00,WeatherDisplay:10.37,2013-07-17 12:41:00,
2013-07-17 07:46:00,74.1,67.9,30.21,WSW,244,1.2,1.2,81,0.00,CLR,CLR,0.00,WeatherDisplay:10.37,2013-07-17 12:46:00,
2013-07-17 07:51:00,74.2,68.0,30.21,WSW,244,1.2,1.2,81,0.00,CLR,CLR,0.00,WeatherDisplay:10.37,2013-07-17 12:51:00,
2013-07-17 07:57:00,74.6,68.0,30.21,East,81,1.2,1.2,80,0.00,CLR,CLR,0.00,WeatherDisplay:10.37,2013-07-17 12:57:00,
2013-07-17 08:02:00,75.0,68.0,30.21,WSW,258,4.0,4.0,79,0.00,CLR,CLR,0.00,WeatherDisplay:10.37,2013-07-17 13:02:00,
2013-07-17 08:07:00,75.3,68.3,30.21,WSW,258,2.0,2.0,79,0.00,CLR,CLR,0.00,WeatherDisplay:10.37,2013-07-17 13:07:00,
2013-07-17 08:12:00,75.7,68.7,30.21,WSW,253,2.3,2.3,79,0.00,CLR,CLR,0.00,WeatherDisplay:10.37,2013-07-17 13:12:00,
2013-07-17 08:17:00,75.9,68.5,30.21,WSW,253,2.3,2.3,78,0.00,CLR,CLR,0.00,WeatherDisplay:10.37,2013-07-17 13:17:00,
2013-07-17 08:22:00,76.3,68.6,30.21,WSW,240,3.5,3.5,77,0.00,CLR,CLR,0.00,WeatherDisplay:10.37,2013-07-17 13:22:00,
2013-07-17 08:27:00,76.6,68.8,30.21,WSW,243,2.3,2.3,77,0.00,CLR,CLR,0.00,WeatherDisplay:10.37,2013-07-17 13:27:00,
2013-07-17 08:32:00,77.0,68.5,30.22,WSW,245,3.5,3.5,75,0.00,CLR,CLR,0.00,WeatherDisplay:10.37,2013-07-17 13:32:00,
2013-07-17 08:37:00,77.2,68.3,30.22,WSW,245,1.2,0.0,74,0.00,CLR,CLR,0.00,WeatherDisplay:10.37,2013-07-17 13:37:00,
2013-07-17 08:42:00,77.6,68.7,30.21,WSW,245,1.0,1.0,74,0.00,CLR,CLR,0.00,WeatherDisplay:10.37,2013-07-17 13:42:00,
2013-07-17 08:47:00,78.0,68.2,30.22,WSW,245,2.3,2.3,72,0.00,CLR,CLR,0.00,WeatherDisplay:10.37,2013-07-17 13:47:00,
2013-07-17 08:52:00,78.2,68.0,30.22,WSW,255,2.3,2.3,71,0.00,CLR,CLR,0.00,WeatherDisplay:10.37,2013-07-17 13:52:00,
2013-07-17 08:57:00,78.5,67.9,30.21,WSW,256,3.5,3.5,70,0.00,CLR,CLR,0.00,WeatherDisplay:10.37,2013-07-17 13:57:00,
2013-07-17 09:02:00,78.8,68.2,30.22,WSW,256,0.0,0.0,70,0.00,CLR,CLR,0.00,WeatherDisplay:10.37,2013-07-17 14:02:00,
2013-07-17 09:08:00,79.6,68.5,30.21,WSW,247,3.5,3.5,69,0.00,CLR,CLR,0.00,WeatherDisplay:10.37,2013-07-17 14:08:00,
2013-07-17 09:13:00,79.9,68.8,30.22,WSW,252,4.0,4.0,69,0.00,CLR,CLR,0.00,WeatherDisplay:10.37,2013-07-17 14:13:00,
2013-07-17 09:18:00,80.3,68.3,30.22,West,259,1.2,1.2,67,0.00,CLR,CLR,0.00,WeatherDisplay:10.37,2013-07-17 14:18:00,
2013-07-17 09:23:00,80.9,68.5,30.22,WSW,253,4.0,4.0,66,0.00,CLR,CLR,0.00,WeatherDisplay:10.37,2013-07-17 14:23:00,
2013-07-17 09:28:00,81.3,68.9,30.22,WSW,253,1.2,1.2,66,0.00,CLR,CLR,0.00,WeatherDisplay:10.37,2013-07-17 14:28:00,
2013-07-17 09:33:00,81.5,68.1,30.22,WSW,249,4.0,4.0,64,0.00,CLR,CLR,0.00,WeatherDisplay:10.37,2013-07-17 14:33:00,
2013-07-17 09:38:00,81.6,68.2,30.22,WSW,250,1.0,0.0,64,0.00,CLR,CLR,0.00,WeatherDisplay:10.37,2013-07-17 14:38:00,
2013-07-17 09:43:00,82.1,68.7,30.22,WSW,250,0.0,0.0,64,0.00,CLR,CLR,0.00,WeatherDisplay:10.37,2013-07-17 14:43:00,
2013-07-17 09:48:00,82.7,69.3,30.22,WSW,248,1.2,1.2,64,0.00,CLR,CLR,0.00,WeatherDisplay:10.37,2013-07-17 14:48:00,
2013-07-17 09:53:00,83.1,68.3,30.22,WSW,239,0.0,0.0,61,0.00,CLR,CLR,0.00,WeatherDisplay:10.37,2013-07-17 14:53:00,
2013-07-17 09:59:00,83.4,69.0,30.22,WSW,249,1.2,1.2,62,0.00,CLR,CLR,0.00,WeatherDisplay:10.37,2013-07-17 14:59:00,
2013-07-17 10:04:00,83.9,70.0,30.22,WSW,257,3.5,3.5,63,0.00,CLR,CLR,0.00,WeatherDisplay:10.37,2013-07-17 15:04:00,
2013-07-17 10:09:00,84.1,69.2,30.22,WSW,257,1.2,1.2,61,0.00,CLR,CLR,0.00,WeatherDisplay:10.37,2013-07-17 15:09:00,
2013-07-17 10:14:00,84.6,68.2,30.21,WSW,257,1.2,1.2,58,0.00,CLR,CLR,0.00,WeatherDisplay:10.37,2013-07-17 15:14:00,
2013-07-17 10:19:00,85.1,68.7,30.21,WSW,257,0.0,0.0,58,0.00,CLR,CLR,0.00,WeatherDisplay:10.37,2013-07-17 15:19:00,
2013-07-17 10:24:00,85.2,68.2,30.21,SE,140,3.5,3.5,57,0.00,CLR,CLR,0.00,WeatherDisplay:10.37,2013-07-17 15:24:00,
2013-07-17 10:29:00,85.7,68.2,30.21,WSW,255,3.0,3.0,56,0.00,CLR,CLR,0.00,WeatherDisplay:10.37,2013-07-17 15:29:00,
2013-07-17 10:34:00,86.1,69.1,30.21,WSW,256,2.3,2.3,57,0.00,CLR,CLR,0.00,WeatherDisplay:10.37,2013-07-17 15:34:00,
2013-07-17 10:39:00,86.3,68.2,30.21,West,262,1.2,1.2,55,0.00,CLR,CLR,0.00,WeatherDisplay:10.37,2013-07-17 15:39:00,
2013-07-17 10:44:00,86.9,68.8,30.21,NNW,329,1.2,1.2,55,0.00,CLR,CLR,0.00,WeatherDisplay:10.37,2013-07-17 15:44:00,
2013-07-17 10:49:00,86.9,68.8,30.21,WSW,250,2.3,2.3,55,0.00,CLR,CLR,0.00,WeatherDisplay:10.37,2013-07-17 15:49:00,
2013-07-17 10:54:00,87.0,68.3,30.21,WSW,254,2.0,2.0,54,0.00,CLR,CLR,0.00,WeatherDisplay:10.37,2013-07-17 15:54:00,
2013-07-17 10:59:00,87.1,69.0,30.21,West,259,5.0,5.0,55,0.00,CLR,CLR,0.00,WeatherDisplay:10.37,2013-07-17 15:59:00,
2013-07-17 11:04:00,86.7,69.6,30.21,WSW,248,2.3,2.3,57,0.00,CLR,CLR,0.00,WeatherDisplay:10.37,2013-07-17 16:04:00,
2013-07-17 11:09:00,86.6,68.0,30.21,WSW,255,4.0,4.0,54,0.00,CLR,CLR,0.00,WeatherDisplay:10.37,2013-07-17 16:09:00,
2013-07-17 11:14:00,86.6,68.0,30.21,WSW,250,7.0,7.0,54,0.00,CLR,CLR,0.00,WeatherDisplay:10.37,2013-07-17 16:14:00,
2013-07-17 11:19:00,86.8,68.7,30.21,SW,215,2.3,2.3,55,0.00,CLR,CLR,0.00,WeatherDisplay:10.37,2013-07-17 16:19:00,
2013-07-17 11:24:00,87.2,68.5,30.21,WSW,254,5.0,5.0,54,0.00,CLR,CLR,0.00,WeatherDisplay:10.37,2013-07-17 16:24:00,
2013-07-17 11:29:00,87.4,68.7,30.21,WSW,246,4.0,4.0,54,0.00,CLR,CLR,0.00,WeatherDisplay:10.37,2013-07-17 16:29:00,
2013-07-17 11:34:00,87.7,69.0,30.20,SW,235,3.5,3.5,54,0.00,CLR,CLR,0.00,WeatherDisplay:10.37,2013-07-17 16:34:00,
2013-07-17 11:39:00,87.6,68.9,30.20,WSW,238,5.0,5.0,54,0.00,CLR,CLR,0.00,WeatherDisplay:10.37,2013-07-17 16:39:00,
2013-07-17 11:44:00,87.7,69.0,30.20,NE,52,2.0,2.0,54,0.00,CLR,CLR,0.00,WeatherDisplay:10.37,2013-07-17 16:44:00,
2013-07-17 11:49:00,88.7,68.8,30.20,SW,216,3.5,3.5,52,0.00,CLR,CLR,0.00,WeatherDisplay:10.37,2013-07-17 16:49:00,
2013-07-17 11:54:00,89.4,69.5,30.20,SSE,157,4.0,4.0,52,0.00,CLR,CLR,0.00,WeatherDisplay:10.37,2013-07-17 16:54:00,
2013-07-17 11:59:00,89.5,68.4,30.20,West,264,3.5,3.5,50,0.00,CLR,CLR,0.00,WeatherDisplay:10.37,2013-07-17 16:59:00,
2013-07-17 12:04:00,89.3,68.8,30.20,NNW,339,1.2,1.2,51,0.00,CLR,CLR,0.00,WeatherDisplay:10.37,2013-07-17 17:04:00,
2013-07-17 12:09:00,89.5,69.0,30.20,SSW,202,2.3,2.3,51,0.00,CLR,CLR,0.00,WeatherDisplay:10.37,2013-07-17 17:09:00,
2013-07-17 12:14:00,90.0,68.3,30.20,WSW,258,4.0,4.0,49,0.00,CLR,CLR,0.00,WeatherDisplay:10.37,2013-07-17 17:14:00,
2013-07-17 12:19:00,89.5,66.6,30.20,West,264,7.0,7.0,47,0.00,CLR,CLR,0.00,WeatherDisplay:10.37,2013-07-17 17:19:00,
2013-07-17 12:24:00,89.0,68.5,30.20,SSW,193,8.1,8.1,51,0.00,CLR,CLR,0.00,WeatherDisplay:10.37,2013-07-17 17:24:00,
2013-07-17 12:29:00,89.0,68.5,30.20,SW,222,1.2,1.2,51,0.00,CLR,CLR,0.00,WeatherDisplay:10.37,2013-07-17 17:29:00,
2013-07-17 12:34:00,89.0,67.9,30.20,West,267,7.0,7.0,50,0.00,CLR,CLR,0.00,WeatherDisplay:10.37,2013-07-17 17:34:00,
2013-07-17 12:39:00,88.3,69.0,30.20,WSW,258,2.3,2.3,53,0.00,CLR,CLR,0.00,WeatherDisplay:10.37,2013-07-17 17:39:00,
2013-07-17 12:44:00,88.8,69.5,30.20,SSE,167,1.2,1.2,53,0.00,CLR,CLR,0.00,WeatherDisplay:10.37,2013-07-17 17:44:00,
2013-07-17 12:49:00,90.1,67.8,30.20,SW,217,5.0,5.0,48,0.00,CLR,CLR,0.00,WeatherDisplay:10.37,2013-07-17 17:49:00,
2013-07-17 12:54:00,90.8,67.8,30.19,WSW,239,3.5,3.5,47,0.00,CLR,CLR,0.00,WeatherDisplay:10.37,2013-07-17 17:54:00,
2013-07-17 12:59:00,91.0,67.3,30.19,West,261,4.0,4.0,46,0.00,CLR,CLR,0.00,WeatherDisplay:10.37,2013-07-17 17:59:00,
2013-07-17 13:04:00,90.8,68.4,30.19,SE,127,2.3,2.3,48,0.00,CLR,CLR,0.00,WeatherDisplay:10.37,2013-07-17 18:04:00,
2013-07-17 13:09:00,91.3,68.2,30.19,West,277,3.5,3.5,47,0.00,CLR,CLR,0.00,WeatherDisplay:10.37,2013-07-17 18:09:00,
2013-07-17 13:14:00,90.9,67.9,30.18,South,188,2.3,2.3,47,0.00,CLR,CLR,0.00,WeatherDisplay:10.37,2013-07-17 18:14:00,
2013-07-17 13:19:00,91.3,68.9,30.18,ESE,115,2.3,2.3,48,0.00,CLR,CLR,0.00,WeatherDisplay:10.37,2013-07-17 18:19:00,
2013-07-17 13:24:00,91.3,67.0,30.18,West,259,7.0,7.0,45,0.00,CLR,CLR,0.00,WeatherDisplay:10.37,2013-07-17 18:24:00,
2013-07-17 13:29:00,91.3,67.6,30.18,West,259,2.3,2.3,46,0.00,CLR,CLR,0.00,WeatherDisplay:10.37,2013-07-17 18:29:00,
2013-07-17 13:34:00,91.6,67.9,30.18,East,80,3.0,3.0,46,0.00,CLR,CLR,0.00,WeatherDisplay:10.37,2013-07-17 18:34:00,
2013-07-17 13:39:00,92.3,69.2,30.18,West,259,3.5,3.5,47,0.00,CLR,CLR,0.00,WeatherDisplay:10.37,2013-07-17 18:39:00,
2013-07-17 13:44:00,92.2,67.8,30.18,WSW,251,6.9,6.9,45,0.00,CLR,CLR,0.00,WeatherDisplay:10.37,2013-07-17 18:44:00,
2013-07-17 13:49:00,91.4,67.7,30.18,West,269,7.0,7.0,46,0.00,CLR,CLR,0.00,WeatherDisplay:10.37,2013-07-17 18:49:00,
2013-07-17 13:55:00,90.0,67.1,30.17,WSW,253,5.0,10.0,47,0.00,CLR,CLR,0.00,WeatherDisplay:10.37,2013-07-17 18:55:00,
2013-07-17 14:00:00,90.1,68.3,30.17,WSW,256,3.0,9.0,49,0.00,CLR,CLR,0.00,WeatherDisplay:10.37,2013-07-17 19:00:00,
2013-07-17 14:05:00,90.7,67.7,30.17,West,259,5.0,5.0,47,0.00,CLR,CLR,0.00,WeatherDisplay:10.37,2013-07-17 19:05:00,
2013-07-17 14:10:00,90.1,67.8,30.17,WSW,250,4.0,4.0,48,0.00,CLR,CLR,0.00,WeatherDisplay:10.37,2013-07-17 19:10:00,
2013-07-17 14:15:00,89.6,67.3,30.17,WSW,244,4.0,4.0,48,0.00,CLR,CLR,0.00,WeatherDisplay:10.37,2013-07-17 19:15:00,
2013-07-17 14:20:00,90.3,68.5,30.17,North,355,1.2,1.2,49,0.00,CLR,CLR,0.00,WeatherDisplay:10.37,2013-07-17 19:20:00,
2013-07-17 14:25:00,91.0,68.0,30.17,ENE,61,2.3,2.3,47,0.00,CLR,CLR,0.00,WeatherDisplay:10.37,2013-07-17 19:25:00,
2013-07-17 14:30:00,91.1,67.4,30.16,WSW,247,8.0,8.0,46,0.00,CLR,CLR,0.00,WeatherDisplay:10.37,2013-07-17 19:30:00,
2013-07-17 14:35:00,90.6,67.6,30.16,SE,128,4.0,4.0,47,0.00,CLR,CLR,0.00,WeatherDisplay:10.37,2013-07-17 19:35:00,
2013-07-17 14:40:00,91.5,68.4,30.16,West,275,3.5,3.5,47,0.00,CLR,CLR,0.00,WeatherDisplay:10.37,2013-07-17 19:40:00,
2013-07-17 14:45:00,92.1,67.7,30.15,SSE,147,5.8,5.8,45,0.00,CLR,CLR,0.00,WeatherDisplay:10.37,2013-07-17 19:45:00,
2013-07-17 14:50:00,92.7,68.2,30.16,SW,216,4.0,4.0,45,0.00,CLR,CLR,0.00,WeatherDisplay:10.37,2013-07-17 19:50:00,
2013-07-17 14:55:00,93.1,68.0,30.15,WNW,289,3.5,3.5,44,0.00,CLR,CLR,0.00,WeatherDisplay:10.37,2013-07-17 19:55:00,
2013-07-17 15:00:00,93.4,68.9,30.15,ENE,70,3.5,3.5,45,0.00,CLR,CLR,0.00,WeatherDisplay:10.37,2013-07-17 20:00:00,
2013-07-17 15:05:00,93.6,68.4,30.15,ENE,74,4.0,4.0,44,0.00,CLR,CLR,0.00,WeatherDisplay:10.37,2013-07-17 20:05:00,
2013-07-17 15:10:00,93.3,68.1,30.15,ENE,74,3.5,3.5,44,0.00,CLR,CLR,0.00,WeatherDisplay:10.37,2013-07-17 20:10:00,
2013-07-17 15:15:00,93.5,69.0,30.15,ESE,109,6.9,6.9,45,0.00,CLR,CLR,0.00,WeatherDisplay:10.37,2013-07-17 20:15:00,
2013-07-17 15:20:00,93.8,67.9,30.14,East,80,4.0,4.0,43,0.00,CLR,CLR,0.00,WeatherDisplay:10.37,2013-07-17 20:20:00,
2013-07-17 15:26:00,93.9,68.0,30.14,East,80,3.0,3.0,43,0.00,CLR,CLR,0.00,WeatherDisplay:10.37,2013-07-17 20:26:00,
2013-07-17 15:31:00,94.0,68.1,30.14,NW,319,3.5,3.5,43,0.00,CLR,CLR,0.00,WeatherDisplay:10.37,2013-07-17 20:31:00,
2013-07-17 15:36:00,93.7,67.8,30.14,ESE,119,3.5,3.5,43,0.00,CLR,CLR,0.00,WeatherDisplay:10.37,2013-07-17 20:36:00,
2013-07-17 15:41:00,93.3,68.1,30.13,WSW,242,7.0,7.0,44,0.00,CLR,CLR,0.00,WeatherDisplay:10.37,2013-07-17 20:41:00,
2013-07-17 15:46:00,92.5,68.1,30.14,SE,130,5.0,5.0,45,0.00,CLR,CLR,0.00,WeatherDisplay:10.37,2013-07-17 20:46:00,
2013-07-17 15:51:00,92.4,67.3,30.13,WSW,242,3.5,3.5,44,0.00,CLR,CLR,0.00,WeatherDisplay:10.37,2013-07-17 20:51:00,
2013-07-17 15:56:00,93.0,67.9,30.13,ENE,74,3.5,3.5,44,0.00,CLR,CLR,0.00,WeatherDisplay:10.37,2013-07-17 20:56:00,
2013-07-17 16:02:00,93.3,67.5,30.13,SW,217,8.0,8.0,43,0.00,CLR,CLR,0.00,WeatherDisplay:10.37,2013-07-17 21:02:00,
2013-07-17 16:07:00,92.9,68.4,30.13,East,93,3.5,3.5,45,0.00,CLR,CLR,0.00,WeatherDisplay:10.37,2013-07-17 21:07:00,
2013-07-17 16:12:00,93.2,68.0,30.13,SSW,211,1.2,1.2,44,0.00,CLR,CLR,0.00,WeatherDisplay:10.37,2013-07-17 21:12:00,
2013-07-17 16:17:00,93.5,67.6,30.12,West,267,7.0,7.0,43,0.00,CLR,CLR,0.00,WeatherDisplay:10.37,2013-07-17 21:17:00,
2013-07-17 16:22:00,92.7,67.6,30.12,West,264,7.0,7.0,44,0.00,CLR,CLR,0.00,WeatherDisplay:10.37,2013-07-17 21:22:00,
2013-07-17 16:27:00,92.5,68.1,30.12,WSW,252,3.5,3.5,45,0.00,CLR,CLR,0.00,WeatherDisplay:10.37,2013-07-17 21:27:00,
2013-07-17 16:32:00,92.4,68.6,30.12,WSW,243,4.0,4.0,46,0.00,CLR,CLR,0.00,WeatherDisplay:10.37,2013-07-17 21:32:00,
2013-07-17 16:37:00,92.4,67.3,30.12,WSW,252,7.0,7.0,44,0.00,CLR,CLR,0.00,WeatherDisplay:10.37,2013-07-17 21:37:00,
2013-07-17 16:42:00,92.2,67.8,30.12,ESE,119,5.0,5.0,45,0.00,CLR,CLR,0.00,WeatherDisplay:10.37,2013-07-17 21:42:00,
2013-07-17 16:47:00,91.7,67.3,30.12,South,178,3.5,3.5,45,0.00,CLR,CLR,0.00,WeatherDisplay:10.37,2013-07-17 21:47:00,
2013-07-17 16:52:00,91.3,67.6,30.12,SSE,161,3.5,3.5,46,0.00,CLR,CLR,0.00,WeatherDisplay:10.37,2013-07-17 21:52:00,
2013-07-17 16:57:00,91.5,68.4,30.11,South,186,2.3,2.3,47,0.00,CLR,CLR,0.00,WeatherDisplay:10.37,2013-07-17 21:57:00,
2013-07-17 17:02:00,91.9,68.2,30.11,SW,220,4.0,4.0,46,0.00,CLR,CLR,0.00,WeatherDisplay:10.37,2013-07-17 22:02:00,
2013-07-17 17:07:00,92.2,67.8,30.11,West,259,3.5,3.5,45,0.00,CLR,CLR,0.00,WeatherDisplay:10.37,2013-07-17 22:07:00,
2013-07-17 17:12:00,92.1,67.7,30.11,SSW,197,5.8,5.8,45,0.00,CLR,CLR,0.00,WeatherDisplay:10.37,2013-07-17 22:12:00,
2013-07-17 17:17:00,92.1,67.7,30.10,SSW,202,8.1,8.1,45,0.00,CLR,CLR,0.00,WeatherDisplay:10.37,2013-07-17 22:17:00,
2013-07-17 17:22:00,91.9,67.5,30.10,South,190,4.0,4.0,45,0.00,CLR,CLR,0.00,WeatherDisplay:10.37,2013-07-17 22:22:00,
2013-07-17 17:27:00,92.0,68.9,30.10,West,273,3.5,3.5,47,0.00,CLR,CLR,0.00,WeatherDisplay:10.37,2013-07-17 22:27:00,
2013-07-17 17:32:00,92.2,67.1,30.10,SSE,162,3.5,3.5,44,0.00,CLR,CLR,0.00,WeatherDisplay:10.37,2013-07-17 22:32:00,
2013-07-17 17:37:00,92.1,67.1,30.10,WSW,247,5.0,5.0,44,0.00,CLR,CLR,0.00,WeatherDisplay:10.37,2013-07-17 22:37:00,
2013-07-17 17:42:00,92.3,67.2,30.10,South,179,3.5,3.5,44,0.00,CLR,CLR,0.00,WeatherDisplay:10.37,2013-07-17 22:42:00,
2013-07-17 17:47:00,92.3,67.2,30.10,SSW,202,4.0,4.0,44,0.00,CLR,CLR,0.00,WeatherDisplay:10.37,2013-07-17 22:47:00,
2013-07-17 17:52:00,92.1,67.1,30.09,East,84,3.5,3.5,44,0.00,CLR,CLR,0.00,WeatherDisplay:10.37,2013-07-17 22:52:00,
2013-07-17 17:57:00,92.2,67.1,30.09,WSW,242,1.2,1.2,44,0.00,CLR,CLR,0.00,WeatherDisplay:10.37,2013-07-17 22:57:00,
2013-07-17 18:02:00,92.2,67.1,30.09,SSW,204,3.5,3.5,44,0.00,CLR,CLR,0.00,WeatherDisplay:10.37,2013-07-17 23:02:00,
2013-07-17 18:07:00,92.4,67.3,30.09,WSW,251,5.0,5.0,44,0.00,CLR,CLR,0.00,WeatherDisplay:10.37,2013-07-17 23:07:00,
2013-07-17 18:12:00,92.5,67.4,30.09,West,261,2.3,2.3,44,0.00,CLR,CLR,0.00,WeatherDisplay:10.37,2013-07-17 23:12:00,
2013-07-17 18:17:00,92.5,67.4,30.08,WSW,248,5.8,5.8,44,0.00,CLR,CLR,0.00,WeatherDisplay:10.37,2013-07-17 23:17:00,
2013-07-17 18:22:00,92.3,67.2,30.08,West,262,6.9,6.9,44,0.00,CLR,CLR,0.00,WeatherDisplay:10.37,2013-07-17 23:22:00,
2013-07-17 18:27:00,92.4,68.0,30.08,SE,124,2.3,2.3,45,0.00,CLR,CLR,0.00,WeatherDisplay:10.37,2013-07-17 23:27:00,
2013-07-17 18:32:00,92.5,67.4,30.08,WSW,254,6.0,6.0,44,0.00,CLR,CLR,0.00,WeatherDisplay:10.37,2013-07-17 23:32:00,
2013-07-17 18:37:00,92.3,68.5,30.08,South,179,2.3,2.3,46,0.00,CLR,CLR,0.00,WeatherDisplay:10.37,2013-07-17 23:37:00,
2013-07-17 18:42:00,92.3,66.6,30.08,SW,236,4.0,4.0,43,0.00,CLR,CLR,0.00,WeatherDisplay:10.37,2013-07-17 23:42:00,
2013-07-17 18:47:00,92.1,66.4,30.08,WSW,242,5.0,5.0,43,0.00,CLR,CLR,0.00,WeatherDisplay:10.37,2013-07-17 23:47:00,
2013-07-17 18:52:00,92.0,66.3,30.08,SE,133,3.5,3.5,43,0.00,CLR,CLR,0.00,WeatherDisplay:10.37,2013-07-17 23:52:00,
2013-07-17 18:57:00,91.9,67.5,30.08,ESE,123,6.0,6.0,45,0.00,CLR,CLR,0.00,WeatherDisplay:10.37,2013-07-17 23:57:00,
2013-07-17 19:02:00,91.8,66.8,30.08,WSW,248,2.3,2.3,44,0.00,CLR,CLR,0.00,WeatherDisplay:10.37,2013-07-18 00:02:00,
2013-07-17 19:07:00,91.4,66.4,30.08,West,264,7.0,7.0,44,0.00,CLR,CLR,0.00,WeatherDisplay:10.37,2013-07-18 00:07:00,
2013-07-17 19:12:00,91.0,66.7,30.08,WNW,285,1.2,1.2,45,0.00,CLR,CLR,0.00,WeatherDisplay:10.37,2013-07-18 00:12:00,
2013-07-17 19:17:00,90.7,67.1,30.08,West,265,3.5,3.5,46,0.00,CLR,CLR,0.00,WeatherDisplay:10.37,2013-07-18 00:17:00,
2013-07-17 19:22:00,90.6,66.3,30.08,WSW,257,3.5,3.5,45,0.00,CLR,CLR,0.00,WeatherDisplay:10.37,2013-07-18 00:22:00,
2013-07-17 19:27:00,90.4,66.8,30.08,WSW,250,5.0,5.0,46,0.00,CLR,CLR,0.00,WeatherDisplay:10.37,2013-07-18 00:27:00,
2013-07-17 19:32:00,90.3,66.1,30.08,SSE,162,4.6,4.6,45,0.00,CLR,CLR,0.00,WeatherDisplay:10.37,2013-07-18 00:32:00,
2013-07-17 19:37:00,90.2,66.6,30.08,WSW,250,6.0,6.0,46,0.00,CLR,CLR,0.00,WeatherDisplay:10.37,2013-07-18 00:37:00,
2013-07-17 19:42:00,90.1,65.9,30.08,WNW,297,3.5,3.5,45,0.00,CLR,CLR,0.00,WeatherDisplay:10.37,2013-07-18 00:42:00,
2013-07-17 19:47:00,90.0,65.8,30.08,West,273,5.0,5.0,45,0.00,CLR,CLR,0.00,WeatherDisplay:10.37,2013-07-18 00:47:00,
2013-07-17 19:52:00,89.9,66.3,30.08,SW,220,2.3,2.3,46,0.00,CLR,CLR,0.00,WeatherDisplay:10.37,2013-07-18 00:52:00,
2013-07-17 19:57:00,89.7,66.2,30.08,SSW,194,2.3,2.3,46,0.00,CLR,CLR,0.00,WeatherDisplay:10.37,2013-07-18 00:57:00,
2013-07-17 20:02:00,89.6,66.7,30.08,SW,231,2.3,2.3,47,0.00,CLR,CLR,0.00,WeatherDisplay:10.37,2013-07-18 01:02:00,
2013-07-17 20:07:00,89.5,66.6,30.08,East,84,1.2,1.2,47,0.00,CLR,CLR,0.00,WeatherDisplay:10.37,2013-07-18 01:07:00,
2013-07-17 20:12:00,89.4,66.5,30.08,SE,146,2.3,0.0,47,0.00,CLR,CLR,0.00,WeatherDisplay:10.37,2013-07-18 01:12:00,
2013-07-17 20:17:00,89.3,66.4,30.08,SSE,164,3.5,3.5,47,0.00,CLR,CLR,0.00,WeatherDisplay:10.37,2013-07-18 01:17:00,
2013-07-17 20:22:00,89.1,66.9,30.07,SW,217,2.3,2.3,48,0.00,CLR,CLR,0.00,WeatherDisplay:10.37,2013-07-18 01:22:00,
2013-07-17 20:27:00,89.0,66.8,30.07,SSE,168,4.0,4.0,48,0.00,CLR,CLR,0.00,WeatherDisplay:10.37,2013-07-18 01:27:00,
2013-07-17 20:32:00,88.8,66.6,30.07,South,189,2.0,2.0,48,0.00,CLR,CLR,0.00,WeatherDisplay:10.37,2013-07-18 01:32:00,
2013-07-17 20:38:00,88.6,67.0,30.07,South,186,2.3,0.0,49,0.00,CLR,CLR,0.00,WeatherDisplay:10.37,2013-07-18 01:38:00,
2013-07-17 20:43:00,88.4,66.8,30.07,SE,129,3.5,3.5,49,0.00,CLR,CLR,0.00,WeatherDisplay:10.37,2013-07-18 01:43:00,
2013-07-17 20:48:00,88.2,66.6,30.07,SSE,168,1.0,1.0,49,0.00,CLR,CLR,0.00,WeatherDisplay:10.37,2013-07-18 01:48:00,
2013-07-17 20:53:00,88.1,67.1,30.07,South,174,1.2,0.0,50,0.00,CLR,CLR,0.00,WeatherDisplay:10.37,2013-07-18 01:53:00,
2013-07-17 20:58:00,87.9,66.9,30.07,SSW,207,2.3,2.3,50,0.00,CLR,CLR,0.00,WeatherDisplay:10.37,2013-07-18 01:58:00,
2013-07-17 21:03:00,87.7,66.8,30.07,SW,226,2.3,2.3,50,0.00,CLR,CLR,0.00,WeatherDisplay:10.37,2013-07-18 02:03:00,
2013-07-17 21:08:00,87.5,67.1,30.07,South,169,1.2,1.2,51,0.00,CLR,CLR,0.00,WeatherDisplay:10.37,2013-07-18 02:08:00,
2013-07-17 21:13:00,87.4,67.6,30.07,SSW,200,3.0,3.0,52,0.00,CLR,CLR,0.00,WeatherDisplay:10.37,2013-07-18 02:13:00,
2013-07-17 21:18:00,87.1,66.8,30.07,South,172,1.2,1.2,51,0.00,CLR,CLR,0.00,WeatherDisplay:10.37,2013-07-18 02:18:00,
2013-07-17 21:23:00,87.0,67.2,30.07,SE,142,1.2,1.2,52,0.00,CLR,CLR,0.00,WeatherDisplay:10.37,2013-07-18 02:23:00,
2013-07-17 21:28:00,86.8,67.1,30.07,NE,42,3.0,3.0,52,0.00,CLR,CLR,0.00,WeatherDisplay:10.37,2013-07-18 02:28:00,
2013-07-17 21:33:00,86.6,67.4,30.07,SE,137,1.2,0.0,53,0.00,CLR,CLR,0.00,WeatherDisplay:10.37,2013-07-18 02:33:00,
2013-07-17 21:38:00,86.4,67.2,30.07,SE,142,1.2,1.2,53,0.00,CLR,CLR,0.00,WeatherDisplay:10.37,2013-07-18 02:38:00,
2013-07-17 21:43:00,86.2,67.1,30.08,SSW,204,1.2,1.2,53,0.00,CLR,CLR,0.00,WeatherDisplay:10.37,2013-07-18 02:43:00,
2013-07-17 21:48:00,86.1,67.5,30.07,South,183,2.3,2.3,54,0.00,CLR,CLR,0.00,WeatherDisplay:10.37,2013-07-18 02:48:00,
2013-07-17 21:53:00,86.0,67.4,30.07,South,180,2.0,2.0,54,0.00,CLR,CLR,0.00,WeatherDisplay:10.37,2013-07-18 02:53:00,
2013-07-17 21:58:00,85.9,67.3,30.08,East,95,1.2,1.2,54,0.00,CLR,CLR,0.00,WeatherDisplay:10.37,2013-07-18 02:58:00,
2013-07-17 22:03:00,85.7,67.7,30.08,SSE,167,3.5,3.5,55,0.00,CLR,CLR,0.00,WeatherDisplay:10.37,2013-07-18 03:03:00,
2013-07-17 22:08:00,85.6,67.6,30.08,SW,216,2.3,2.3,55,0.00,CLR,CLR,0.00,WeatherDisplay:10.37,2013-07-18 03:08:00,
2013-07-17 22:13:00,85.5,67.5,30.08,NE,53,2.3,2.3,55,0.00,CLR,CLR,0.00,WeatherDisplay:10.37,2013-07-18 03:13:00,
2013-07-17 22:18:00,85.4,67.4,30.08,ESE,109,1.2,1.2,55,0.00,CLR,CLR,0.00,WeatherDisplay:10.37,2013-07-18 03:18:00,
2013-07-17 22:23:00,85.2,67.2,30.08,SW,229,3.5,3.5,55,0.00,CLR,CLR,0.00,WeatherDisplay:10.37,2013-07-18 03:23:00,
2013-07-17 22:28:00,85.1,67.6,30.08,SE,145,1.2,1.2,56,0.00,CLR,CLR,0.00,WeatherDisplay:10.37,2013-07-18 03:28:00,
2013-07-17 22:33:00,85.0,67.5,30.08,NE,44,1.2,1.2,56,0.00,CLR,CLR,0.00,WeatherDisplay:10.37,2013-07-18 03:33:00,
2013-07-17 22:39:00,84.8,67.4,30.08,SSE,164,1.2,1.2,56,0.00,CLR,CLR,0.00,WeatherDisplay:10.37,2013-07-18 03:39:00,
2013-07-17 22:44:00,84.7,67.8,30.08,SE,142,1.2,0.0,57,0.00,CLR,CLR,0.00,WeatherDisplay:10.37,2013-07-18 03:44:00,
2013-07-17 22:49:00,84.5,67.6,30.08,SSE,148,1.2,1.2,57,0.00,CLR,CLR,0.00,WeatherDisplay:10.37,2013-07-18 03:49:00,
2013-07-17 22:54:00,84.4,68.0,30.08,ESE,123,2.3,2.3,58,0.00,CLR,CLR,0.00,WeatherDisplay:10.37,2013-07-18 03:54:00,
2013-07-17 22:59:00,84.2,67.8,30.08,SSE,153,1.2,1.2,58,0.00,CLR,CLR,0.00,WeatherDisplay:10.37,2013-07-18 03:59:00,
2013-07-17 23:01:00,84.2,67.8,30.08,SSE,153,1.0,0.0,58,0.00,CLR,CLR,0.00,WeatherDisplay:10.37,2013-07-18 04:01:00,
2013-07-17 23:02:00,84.2,67.8,30.08,SSE,153,1.2,0.0,58,0.00,CLR,CLR,0.00,WeatherDisplay:10.37,2013-07-18 04:02:00,
2013-07-17 23:03:00,84.1,67.7,30.08,SW,220,2.3,2.3,58,0.00,CLR,CLR,0.00,WeatherDisplay:10.37,2013-07-18 04:03:00,
2013-07-17 23:04:00,84.1,67.7,30.08,SW,220,1.2,1.2,58,0.00,CLR,CLR,0.00,WeatherDisplay:10.37,2013-07-18 04:04:00,
2013-07-17 23:09:00,84.0,67.6,30.08,SW,223,1.2,0.0,58,0.00,CLR,CLR,0.00,WeatherDisplay:10.37,2013-07-18 04:09:00,
2013-07-17 23:10:00,83.9,67.5,30.08,SW,223,0.0,0.0,58,0.00,CLR,CLR,0.00,WeatherDisplay:10.37,2013-07-18 04:10:00,
2013-07-17 23:16:00,83.8,67.9,30.08,South,175,2.0,2.0,59,0.00,CLR,CLR,0.00,WeatherDisplay:10.37,2013-07-18 04:16:00,
2013-07-17 23:21:00,83.6,67.8,30.08,SSE,161,0.0,0.0,59,0.00,CLR,CLR,0.00,WeatherDisplay:10.37,2013-07-18 04:21:00,
2013-07-17 23:26:00,83.4,67.6,30.07,NNW,345,1.2,1.2,59,0.00,CLR,CLR,0.00,WeatherDisplay:10.37,2013-07-18 04:26:00,
2013-07-17 23:31:00,83.3,67.5,30.08,SSW,201,1.2,0.0,59,0.00,CLR,CLR,0.00,WeatherDisplay:10.37,2013-07-18 04:31:00,
2013-07-17 23:36:00,83.1,67.3,30.08,SSW,200,1.2,1.2,59,0.00,CLR,CLR,0.00,WeatherDisplay:10.37,2013-07-18 04:36:00,
2013-07-17 23:41:00,83.0,67.2,30.08,East,98,2.3,2.3,59,0.00,CLR,CLR,0.00,WeatherDisplay:10.37,2013-07-18 04:41:00,
2013-07-17 23:46:00,82.9,67.6,30.08,ESE,102,2.0,2.0,60,0.00,CLR,CLR,0.00,WeatherDisplay:10.37,2013-07-18 04:46:00,
2013-07-17 23:51:00,82.8,67.5,30.08,SW,229,2.3,2.3,60,0.00,CLR,CLR,0.00,WeatherDisplay:10.37,2013-07-18 04:51:00,
2013-07-17 23:56:00,82.8,67.5,30.07,South,178,2.3,2.3,60,0.00,CLR,CLR,0.00,WeatherDisplay:10.37,2013-07-18 04:56:00,